Content
SEND FEEDBACK

Daily
Averages
Monthly
Summary
United States of America

ROCKFORD, ALABAMA


Home > North America > United States > Alabama
Elevation: 784 feet     Latitude: 32 53N     Longitude: 086 10W

WEATHER
 
SELECT A DAY
Number of Records: 279,662;   Date Range: 5/6/03 - 10/20/14
 
SHARE

PRINT THIS DATA

[ ← Previous Day ]
WEATHER ALMANAC - FEBRUARY 13, 2013
[ Next Day → ]
[ °C ]   °F
Weather ElementAverageHighLow
Temperature49.9 °F54.7 °F (6:15 am)41 °F (9:35 pm)
Dewpoint43.8 °F52 °F (6:15 am)36 °F (11:35 pm)
Humidity79.8 %91 % (5:15 am)66 % (12:35 pm)
Barometer29.88 in30.02 in (11:55 pm)29.74 in (3:35 am)
Wind Speed6.2 mph15 mph (10:35 am)
Wind Gust24.2 mph (8:15 am)
Weather ElementAverage
Visibility8.2 mi
Wind DirectionSSW (218.6 °)

Weather ElementTotal
Precipitation0.05 in
Heating Degree Days17.2 (Base 65)
Averaged from 71 records on February 13, 2013
WEATHER CONDITIONS BREAKOUT
WIND DIRECTION BREAKOUT
WEATHER BY HOUR - FEBRUARY 13, 2013
[ °C ]   °F
Local TimeTemperatureDewpointHumidityBarometerVisibilityWind DirectionWind SpeedGust SpeedPrecipitationEventsConditions
12:35 AM49.6 °F46.8 °F90 %29.78 in5.0 miEast (100°)4.6 mphOvercast
12:55 AM49.6 °F46.8 °F90 %29.78 in4.0 miEast (90°)3.5 mphOvercast
1:15 AM49.6 °F46.8 °F90 %29.80 in2.5 miCalmOvercast
1:35 AM49.6 °F46.9 °F90 %29.78 in2.5 miCalm0.01 inDrizzle
1:55 AM49.6 °F46.9 °F90 %29.77 in2.5 miCalm0.01 inLight Drizzle
2:15 AM49.6 °F46.9 °F90 %29.77 in2.5 miCalmLight Drizzle
2:35 AM49.6 °F46.9 °F90 %29.76 in2.5 miCalmLight Drizzle
2:55 AM49.6 °F46.9 °F90 %29.76 in2.5 miCalmOvercast
3:15 AM49.6 °F46.9 °F90 %29.76 in1.8 miCalm0.01 inDrizzle
3:35 AM49.6 °F46.9 °F90 %29.74 in2.0 miCalm0.01 inLight Drizzle
3:55 AM49.6 °F46.9 °F90 %29.76 in2.0 miCalm0.01 inOvercast
4:15 AM49.6 °F46.9 °F90 %29.75 in1.8 miCalmOvercast
4:35 AM49.6 °F46.9 °F90 %29.79 in2.5 miSW (230°)4.6 mphOvercast
4:55 AM49.6 °F46.9 °F90 %29.76 in1.5 miSouth (190°)3.5 mphRainLight Rain
5:15 AM50.5 °F48.0 °F91 %29.77 in2.0 miCalmOvercast
5:35 AM50.9 °F48.4 °F91 %29.76 in2.5 miCalmOvercast
5:55 AM52.2 °F49.5 °F91 %29.79 in3.0 miSW (220°)5.8 mphOvercast
6:15 AM54.7 °F52.0 °F91 %29.77 in10.0 miSSW (210°)6.9 mphOvercast
6:35 AM54.7 °F52.0 °F91 %29.78 in10.0 miSW (230°)9.2 mphOvercast
6:55 AM54.7 °F52.0 °F91 %29.80 in10.0 miWSW (250°)8.1 mphOvercast
7:15 AM54.7 °F51.8 °F90 %29.81 in10.0 miCalmOvercast
7:35 AM54.7 °F51.8 °F90 %29.80 in10.0 miWSW (250°)5.8 mphOvercast
7:55 AM54.7 °F50.7 °F86 %29.83 in10.0 miWSW (250°)12.7 mph19.6 mphMostly Cloudy
8:15 AM54.7 °F49.6 °F83 %29.86 in10.0 miWest (280°)13.8 mph24.2 mphOvercast
8:35 AM54.7 °F49.6 °F83 %29.86 in10.0 miWest (270°)9.2 mph20.7 mphOvercast
8:55 AM54.7 °F49.6 °F83 %29.87 in10.0 miWest (270°)8.1 mphOvercast
9:15 AM54.7 °F49.3 °F82 %29.86 in10.0 miWSW (250°)11.5 mphOvercast
9:35 AM54.7 °F48.4 °F79 %29.85 in10.0 miWest (260°)10.4 mph17.3 mphOvercast
9:55 AM54.7 °F47.7 °F77 %29.86 in10.0 miWest (280°)8.1 mph19.6 mphOvercast
10:15 AM52.2 °F46.6 °F81 %29.89 in10.0 miWest (280°)13.8 mph23.0 mphRainLight Rain
10:35 AM51.1 °F45.1 °F80 %29.89 in10.0 miWest (270°)15.0 mph18.4 mphOvercast
10:55 AM50.9 °F44.8 °F80 %29.90 in10.0 miWest (260°)11.5 mph18.4 mphOvercast
11:15 AM52.2 °F44.8 °F76 %29.89 in10.0 miWest (270°)8.1 mph19.6 mphOvercast
11:35 AM52.2 °F45.5 °F78 %29.88 in10.0 miWest (270°)6.9 mph16.1 mphOvercast
11:55 AM52.2 °F43.9 °F73 %29.88 in10.0 miWest (260°)8.1 mphMostly Cloudy
12:15 PM54.7 °F45.7 °F72 %29.89 in10.0 miWSW (250°)11.5 mph17.3 mphMostly Cloudy
12:35 PM54.7 °F43.5 °F66 %29.87 in10.0 miWest (270°)13.8 mph21.9 mphMostly Cloudy
12:55 PM54.3 °F43.9 °F68 %29.84 in10.0 miWest (270°)11.5 mph19.6 mphOvercast
1:15 PM52.2 °F42.3 °F69 %29.86 in10.0 miWest (270°)12.7 mphOvercast
1:35 PM52.2 °F42.6 °F70 %29.88 in10.0 miWest (260°)6.9 mph16.1 mphOvercast
1:55 PM50.9 °F41.5 °F70 %29.88 in10.0 miWNW (290°)10.4 mph19.6 mphOvercast
2:15 PM51.1 °F41.2 °F69 %29.87 in10.0 miWNW (290°)9.2 mph16.1 mphOvercast
2:35 PM52.2 °F41.9 °F68 %29.89 in10.0 miWNW (300°)8.1 mph16.1 mphOvercast
2:55 PM50.9 °F41.5 °F70 %29.89 in10.0 miWNW (290°)5.8 mphOvercast
3:15 PM50.9 °F41.4 °F70 %29.90 in10.0 miWNW (290°)10.4 mphOvercast
3:35 PM49.6 °F40.6 °F71 %29.91 in10.0 miWest (270°)8.1 mphOvercast
3:55 PM49.6 °F40.5 °F71 %29.91 in10.0 miWNW (290°)8.1 mphOvercast
4:15 PM49.6 °F40.3 °F70 %29.91 in10.0 miWNW (290°)10.4 mph16.1 mphOvercast
4:35 PM49.6 °F40.3 °F70 %29.92 in10.0 miWNW (300°)5.8 mphOvercast
4:55 PM49.6 °F40.1 °F70 %29.93 in10.0 miWNW (290°)5.8 mphOvercast
5:15 PM49.6 °F40.6 °F71 %29.94 in10.0 miWNW (300°)8.1 mphOvercast
5:35 PM49.6 °F40.3 °F70 %29.94 in10.0 miNW (320°)8.1 mphOvercast
5:55 PM49.6 °F40.3 °F70 %29.95 in10.0 miWNW (300°)6.9 mphOvercast
6:15 PM49.6 °F39.7 °F69 %29.96 in10.0 miNW (310°)5.8 mph10.4 mphOvercast
6:35 PM49.6 °F40.3 °F70 %29.96 in10.0 miNW (320°)6.9 mphOvercast
6:55 PM49.6 °F39.0 °F67 %29.97 in10.0 miNNW (330°)6.9 mphOvercast
7:15 PM49.6 °F39.4 °F68 %29.97 in10.0 miNW (320°)9.2 mphOvercast
7:35 PM49.6 °F40.1 °F70 %29.98 in10.0 miNNW (330°)6.9 mphOvercast
7:55 PM49.6 °F40.6 °F71 %29.99 in10.0 miNNW (330°)4.6 mphMostly Cloudy
8:15 PM48.0 °F38.7 °F70 %29.99 in10.0 miNW (320°)4.6 mphMostly Cloudy
8:35 PM44.6 °F37.4 °F76 %30.00 in10.0 miNW (320°)4.6 mphMostly Cloudy
8:55 PM44.6 °F37.4 °F76 %30.00 in10.0 miNW (310°)3.5 mphScattered Clouds
9:15 PM43.3 °F36.9 °F78 %30.00 in10.0 miCalmClear
9:35 PM41.0 °F36.5 °F84 %30.01 in10.0 miNW (310°)4.6 mphClear
9:55 PM41.0 °F37.2 °F86 %30.01 in10.0 miNW (320°)4.6 mphClear
10:15 PM42.1 °F37.4 °F83 %30.01 in10.0 miNW (310°)6.9 mphClear
10:35 PM42.1 °F37.6 °F84 %30.01 in10.0 miNNW (330°)4.6 mphClear
10:55 PM41.0 °F36.5 °F84 %30.01 in10.0 miNNW (330°)5.8 mphClear
11:15 PM41.0 °F36.3 °F83 %30.01 in10.0 miNNW (330°)5.8 mphClear
11:35 PM41.0 °F36.0 °F82 %30.01 in10.0 miNW (320°)6.9 mphClear
11:55 PM41.0 °F36.1 °F83 %30.02 in10.0 miCalmClear
Hourly data recorded from KALX, located miles away from Rockford, Alabama







STORIES FROM OUR PARTNERS